Tracking 19286 objects as of 19-Nov-2018
HD Live streaming from Space Station
objects crossing your sky now

OPS 3148

Track OPS 3148 now!
OPS 3148 is classified as:


NORAD ID: 3889
Int'l Code: 1969-036A
Perigee: 31,948.4 km
Apogee: 39,561.5 km
Inclination: 8.0 °
Period: 1,434.1 minutes
Semi major axis: 42125 km
RCS: Unknown
Launch date: April 13, 1969
Source: United States (US)
Launch site: AIR FORCE EASTERN TEST RANGE (AFETR)
aabbcc
Your satellite tracking list
Your tracking list is empty




NASA's NSSDC Master Catalog

Two Line Element Set (TLE):
1 03889U 69036A   18300.44529566 0.00000000  00000-0  00000-0 0    08
2 03889   8.0146  66.3950 0903608 116.9450 252.5666  1.00410442    08
Source of the keplerian elements: McCants